Regional Weather Roundup
Issued by NWS

Home | Current Version | Previous Version | Graphics & Text | Print | Product List | Glossary Off
Versions: 1 2 3 4 5 6 7 8 9 10 11 12 13 14 15 16 17 18 19 20 21 22 23 24 25 26 27 28 29 30 31 32 33 34 35 36 37 38 39 40 41 42 43 44 45 46 47 48 49 50

000
ASUS43 KTOP 201908
RWRKS

WEATHER ROUNDUP FOR KANSAS
NATIONAL WEATHER SERVICE GOODLAND KS
100 PM CST SAT DEC 20 2014

NOTE:  "FAIR" INDICATES FEW OR NO CLOUDS BELOW 12,000 FEET WITH NO
SIGNIFICANT WEATHER AND/OR OBSTRUCTIONS TO VISIBILITY.

KSZ001>006-013>018-027>032-041>047-202000-
NORTHWEST KANSAS

CITY           SKY/WX    TMP DP  RH WIND       PRES   REMARKS
GOODLAND       MOSUNNY   51  26  37 NW5       29.99F
HAYS           SUNNY     48  32  53 S9        30.03F
HILL CITY      MOSUNNY   51  32  48 VRB3      30.01F
RUSSELL        SUNNY     48  38  68 S8        30.02F
$$

KSZ061>065-074>080-084>089-202000-
SOUTHWEST KANSAS

CITY           SKY/WX    TMP DP  RH WIND       PRES   REMARKS
DODGE CITY     CLOUDY    37  34  89 S13       30.05F FOG     WCI  29
ELKHART          N/A    N/A N/A N/A MISG        N/A
GARDEN CITY    MOSUNNY   47  33  58 S10       30.01F
GREAT BEND     SUNNY     46  37  71 S14       30.06F
LIBERAL        CLOUDY    36  32  87 S9        30.06F
PRATT          MOSUNNY   46  37  71 SW15      30.09F
$$

KSZ066>073-081>083-090>101-202000-
SOUTHEAST KANSAS

CITY           SKY/WX    TMP DP  RH WIND       PRES   REMARKS
CHANUTE        MOSUNNY   46  36  68 S12       30.17F
COFFEYVILLE    PTSUNNY   44  35  70 S10       30.20F
HUTCHINSON     MOSUNNY   50  39  66 S12       30.09F
MEDICINE LODGE   N/A     46  38  73 S9        30.10F
NEWTON         MOSUNNY   48  37  66 SW14      30.12F
PARSONS        CLOUDY    44  35  70 S7        30.20F
WICHITA INTL   PTSUNNY   48  36  63 S14       30.12F
WICHITA JABRA  MOSUNNY   46  37  71 SW14      30.12F
WICHITA MCCONL PTSUNNY   46  37  71 S13       30.13F
WINFIELD       CLOUDY    47  37  68 SW12      30.16F
$$

KSZ007>012-019>026-033>040-048>060-102>105-202000-
NORTHEAST KANSAS

CITY           SKY/WX    TMP DP  RH WIND       PRES   REMARKS
CONCORDIA      SUNNY     36  32  85 S5        30.05F
EMPORIA        SUNNY     47  39  74 S17       30.12F
LAWRENCE       SUNNY     46  37  71 SW12      30.12F
MANHATTAN      SUNNY     47  39  74 SW10      30.08F
MARYSVILLE     CLOUDY    34  34 100 CALM      30.07F FOG
OLATHE IND     MOSUNNY   45  37  73 SW12      30.13F
OLATHE EXE     PTSUNNY   44  37  76 SW13      30.13F
SALINA         SUNNY     48  39  71 SW14      30.08F
TOPEKA BILLARD SUNNY     48  38  68 SW10      30.11F
TOPEKA FORBES  SUNNY     48  39  71 S13       30.10F
$$



USA.gov is the U.S. government's official web portal to all federal, state and local government web resources and services.